Wind from 066 at 7 knots gusting 16

Air temperature 26.7° C
Dewpoint 24.3° C

Last reported at 2014-Apr-23 23:35 UTC.
Time now 2014-Apr-24 00:28 UTC

Location: N 12°33' W 070°00'.
View on Google Maps.

See reports from other nearby stations

Tides Stations Pressure Air Temp Water Temp Dewpoint Dewpoint depression Visibility Wind Speed Wind Dir Waves Ship positions

  
sailing weather and tide predictions

DW5321 Paradera AW weather

date/time (UTC)wind fromknots sea level pressurealtimeterstation pressurevisibilityair tempwater tempwave heightnotes
2014-Apr-23 23:35 066 7 gusting 16 26.7
2014-Apr-23 23:20 117 8 gusting 13 26.7
2014-Apr-23 23:05 082 6 gusting 17 26.7
2014-Apr-23 22:50 065 9 gusting 15 27.2
2014-Apr-23 22:36 068 8 gusting 15 27.2
2014-Apr-23 22:20 091 10 gusting 17 27.2
2014-Apr-23 22:04 090 12 gusting 16 27.2
2014-Apr-23 21:50 081 9 gusting 14 27.8
2014-Apr-23 21:35 105 8 gusting 16 27.8
2014-Apr-23 21:19 071 6 gusting 13 28.3
2014-Apr-23 21:04 077 7 gusting 16 28.3
2014-Apr-23 20:49 131 10 gusting 16 28.9
2014-Apr-23 20:35 096 8 gusting 15 28.9
2014-Apr-23 20:20 091 9 gusting 19 29.4
2014-Apr-23 19:49 094 12 gusting 19 28.9
2014-Apr-23 19:33 092 8 gusting 19 28.9
2014-Apr-23 19:18 125 11 gusting 18 29.4
2014-Apr-23 18:48 100 8 gusting 22 29.4
2014-Apr-23 18:33 096 14 gusting 22 29.4
2014-Apr-23 18:19 077 10 gusting 19 30.0
2014-Apr-23 18:03 115 14 gusting 21 29.4
2014-Apr-23 17:49 061 9 gusting 17 30.0
2014-Apr-23 17:33 080 7 gusting 15 30.6
2014-Apr-23 17:17 086 7 gusting 18 30.0
2014-Apr-23 16:33 128 12 gusting 18 30.0
2014-Apr-23 16:18 113 13 gusting 21 29.4
2014-Apr-23 16:02 111 14 gusting 22 28.9
2014-Apr-23 15:47 084 13 gusting 18 29.4
2014-Apr-23 15:32 114 8 gusting 19 29.4
2014-Apr-23 15:17 065 6 gusting 17 29.4
2014-Apr-23 15:02 094 9 gusting 21 28.9
2014-Apr-23 14:46 110 12 gusting 20 28.9
2014-Apr-23 14:32 114 13 gusting 18 28.3
2014-Apr-23 14:16 072 12 gusting 21 28.3
2014-Apr-23 14:02 117 14 gusting 21 28.3
2014-Apr-23 13:47 079 16 gusting 23 28.3
2014-Apr-23 13:31 108 11 gusting 20 28.3
2014-Apr-23 13:17 104 9 gusting 20 27.8
2014-Apr-23 13:01 086 11 gusting 19 27.8
2014-Apr-23 12:46 114 9 gusting 20 27.8
2014-Apr-23 12:31 084 12 gusting 17 27.2
2014-Apr-23 12:15 097 11 gusting 18 27.2
2014-Apr-23 12:01 079 12 gusting 17 27.2
2014-Apr-23 11:45 084 13 gusting 18 27.2
2014-Apr-23 11:29 112 11 gusting 17 26.7
2014-Apr-23 11:15 101 10 gusting 13 26.7
2014-Apr-23 11:00 101 9 gusting 15 26.7
2014-Apr-23 10:44 095 10 gusting 13 26.1
2014-Apr-23 10:30 092 8 gusting 14 26.1
2014-Apr-23 10:15 103 8 gusting 14 26.1
2014-Apr-23 10:01 097 7 gusting 14 26.1
2014-Apr-23 09:44 087 11 gusting 16 26.1
2014-Apr-23 09:30 071 10 gusting 15 26.1
2014-Apr-23 09:15 114 10 gusting 15 26.1
2014-Apr-23 08:59 114 9 gusting 16 26.1
2014-Apr-23 08:44 111 10 gusting 14 26.1
2014-Apr-23 08:29 108 9 gusting 14 26.1
2014-Apr-23 08:15 108 6 gusting 14 26.1
2014-Apr-23 07:58 108 9 gusting 14 26.1
2014-Apr-23 07:44 110 8 gusting 13 26.1
2014-Apr-23 07:29 113 8 gusting 13 26.1
2014-Apr-23 07:13 088 7 gusting 12 26.1
2014-Apr-23 06:59 085 7 gusting 14 26.1
2014-Apr-23 06:43 097 4 gusting 14 26.1
2014-Apr-23 06:29 105 7 gusting 14 26.1
2014-Apr-23 06:13 089 6 gusting 13 26.1
2014-Apr-23 05:59 073 6 gusting 14 26.7
2014-Apr-23 05:43 111 9 gusting 16 26.1
2014-Apr-23 05:27 101 6 gusting 13 26.1
2014-Apr-23 05:13 129 10 gusting 14 26.1
2014-Apr-23 04:57 090 9 gusting 14 26.1
2014-Apr-23 04:43 089 6 gusting 13 26.1
2014-Apr-23 04:27 117 10 gusting 15 26.1
2014-Apr-23 04:13 108 10 gusting 15 26.1
2014-Apr-23 03:57 098 7 gusting 14 26.1
2014-Apr-23 03:41 110 8 gusting 18 26.7
2014-Apr-23 03:27 092 9 gusting 19 26.7
2014-Apr-23 03:12 078 9 gusting 15 26.7
2014-Apr-23 02:57 103 7 gusting 18 26.7
2014-Apr-23 02:41 075 8 gusting 13 26.7
2014-Apr-23 02:27 051 7 gusting 18 26.7
2014-Apr-23 02:11 096 6 gusting 14 26.7
2014-Apr-23 01:57 075 8 gusting 14 26.7
2014-Apr-23 01:41 060 8 gusting 16 26.7
2014-Apr-23 01:27 120 11 gusting 19 26.7
2014-Apr-23 01:11 060 10 gusting 20 26.7
2014-Apr-23 00:56 078 10 gusting 18 26.7
2014-Apr-23 00:42 065 9 gusting 17 26.7
2014-Apr-23 00:26 079 7 gusting 16 26.7
2014-Apr-23 00:11 065 7 gusting 13 26.7
2014-Apr-22 23:56 077 7 gusting 17 26.7
2014-Apr-22 23:40 101 8 gusting 18 26.7
2014-Apr-22 23:26 036 8 gusting 19 26.7
2014-Apr-22 23:11 084 9 gusting 16 26.7
2014-Apr-22 22:56 053 10 gusting 18 26.7
2014-Apr-22 22:40 047 12 gusting 16 27.2
2014-Apr-22 22:26 072 8 gusting 14 27.2
2014-Apr-22 22:10 047 7 gusting 17 27.8
2014-Apr-22 21:56 040 10 gusting 17 27.8
2014-Apr-22 21:40 065 11 gusting 18 27.8
2014-Apr-22 21:26 040 11 gusting 19 27.8
2014-Apr-22 21:10 080 10 gusting 19 28.3
2014-Apr-22 20:54 071 13 gusting 19 28.3
2014-Apr-22 20:40 069 10 gusting 19 28.9
2014-Apr-22 20:24 061 9 gusting 17 28.9
2014-Apr-22 20:10 084 9 gusting 19 28.9
2014-Apr-22 19:54 053 9 gusting 17 28.9
2014-Apr-22 19:40 076 13 gusting 17 29.4
2014-Apr-22 19:24 088 9 gusting 16 29.4
2014-Apr-22 19:10 053 7 gusting 18 29.4
2014-Apr-22 18:54 094 10 gusting 17 29.4
2014-Apr-22 18:39 094 8 gusting 13 29.4
2014-Apr-22 18:24 114 7 gusting 19 30.0
2014-Apr-22 18:09 099 10 gusting 15 30.0
2014-Apr-22 17:53 081 12 gusting 18 30.0
2014-Apr-22 17:39 129 8 gusting 16 30.0
2014-Apr-22 17:23 111 10 gusting 18 30.0
2014-Apr-22 17:08 088 12 gusting 19 30.0
2014-Apr-22 16:53 117 12 gusting 20 30.0
2014-Apr-22 16:38 110 11 gusting 19 30.0
2014-Apr-22 16:22 089 12 gusting 19 30.0
2014-Apr-22 16:08 136 11 gusting 19 29.4
2014-Apr-22 15:53 096 12 gusting 18 28.9
2014-Apr-22 15:38 099 13 gusting 17 29.4
2014-Apr-22 15:23 105 12 gusting 19 28.9
2014-Apr-22 15:07 105 9 gusting 17 28.9
2014-Apr-22 14:52 131 10 gusting 21 28.9
2014-Apr-22 14:38 113 14 gusting 20 28.3
2014-Apr-22 14:22 114 11 gusting 21 28.3
2014-Apr-22 14:07 056 12 gusting 22 28.3
2014-Apr-22 13:51 136 12 gusting 22 28.3
2014-Apr-22 13:37 101 13 gusting 20 27.8
2014-Apr-22 13:21 103 9 gusting 19 27.8
2014-Apr-22 13:07 108 14 gusting 19 27.8
2014-Apr-22 12:51 117 8 gusting 20 27.8
2014-Apr-22 12:37 094 11 gusting 18 27.2
2014-Apr-22 12:21 117 11 gusting 16 27.2
2014-Apr-22 12:07 114 8 gusting 19 27.2
2014-Apr-22 11:51 066 11 gusting 15 26.7
2014-Apr-22 11:37 095 8 gusting 17 26.7
2014-Apr-22 11:21 124 9 gusting 13 26.1
2014-Apr-22 11:07 111 7 gusting 15 26.1
2014-Apr-22 10:51 055 8 gusting 14 26.1
2014-Apr-22 10:36 108 6 gusting 13 26.1
2014-Apr-22 10:21 073 6 gusting 15 26.1
2014-Apr-22 10:06 060 8 gusting 13 26.1
2014-Apr-22 09:50 099 6 gusting 15 26.1
2014-Apr-22 09:35 098 10 gusting 17 26.1
2014-Apr-22 09:21 066 9 gusting 13 26.1
2014-Apr-22 09:05 117 10 gusting 15 26.1
2014-Apr-22 08:51 106 8 gusting 17 26.1
2014-Apr-22 08:35 120 7 gusting 14 26.1
2014-Apr-22 08:19 120 6 gusting 13 26.1
2014-Apr-22 08:05 101 10 gusting 14 26.1
2014-Apr-22 07:49 110 10 gusting 13 26.1
2014-Apr-22 07:35 104 6 gusting 14 26.1
2014-Apr-22 07:19 086 7 gusting 15 26.1
2014-Apr-22 07:05 096 6 gusting 13 26.1
2014-Apr-22 06:49 101 6 gusting 14 26.1
2014-Apr-22 06:34 098 6 gusting 13 26.1
2014-Apr-22 06:19 080 8 gusting 14 26.1
2014-Apr-22 06:04 108 8 gusting 15 26.1
2014-Apr-22 05:48 105 6 gusting 10 26.1
2014-Apr-22 05:34 091 7 gusting 14 26.1
2014-Apr-22 05:18 086 6 gusting 12 26.1
2014-Apr-22 05:04 087 7 gusting 14 26.1
2014-Apr-22 04:48 084 6 gusting 15 26.1
2014-Apr-22 04:34 079 7 gusting 13 26.7
2014-Apr-22 04:18 077 8 gusting 17 26.7
2014-Apr-22 04:03 080 8 gusting 14 26.7
2014-Apr-22 03:48 070 6 gusting 12 26.7
2014-Apr-22 03:33 101 8 gusting 15 26.7
2014-Apr-22 03:19 108 6 gusting 14 26.7
2014-Apr-22 03:03 051 8 gusting 14 26.7
2014-Apr-22 02:47 088 6 gusting 13 26.7
2014-Apr-22 02:33 098 6 gusting 16 26.7
2014-Apr-22 02:17 105 6 gusting 13 26.7
2014-Apr-22 02:03 079 9 gusting 16 26.7
2014-Apr-22 01:47 077 6 gusting 12 26.7
2014-Apr-22 01:33 089 8 gusting 14 26.7
2014-Apr-22 01:18 040 6 gusting 11 26.7
2014-Apr-22 01:02 089 6 gusting 13 26.7
2014-Apr-22 00:49 075 6 gusting 14 26.7
2014-Apr-22 00:32 089 6 gusting 14 26.7
2014-Apr-22 00:16 074 7 gusting 14 26.7
2014-Apr-22 00:02 063 7 gusting 13 26.7